Cosmos 2142 Rocket - Orbit

View from above orbital plane
View from above orbital plane
View from above satellite
View from above satellite

Ground track
Ground track

The orbit data is extracted from the following two-line orbital elements,

1 21231U 91029B   13140.84690764  .00000042  00000-0  27291-4 0  3460
2 21231 082.9503 131.0008 0036268 068.9746 339.2403 13.75568024109157
Epoch (UTC): 20 May 2013 20:19:32
Eccentricity: 0.0036268
inclination: 82.9503°
perigee height: 953 km
apogee height: 1006 km
right ascension of ascending node: 131.0008°
argument of perigee: 68.9746°
revolutions per day: 13.75568024
mean anomaly at epoch: 339.2403°
orbit number at epoch: 10915

The dashed part of the orbit path shows where the satellite is in the earth's shadow,  

Developed and maintained by Chris Peat, Heavens-Above GmbH. Please read the updated FAQ before sending e-mail. Imprint. DLR